Location: Skalnate Pleso
(49.1889°N, 20.2450°E)
Time: 02:40:21
(UTC+01:00)

ALOS - Pass Details

Date: 19 November 2019
Orbit: 683 x 685 km, 97.8° (Epoch: 10 December)

Event Time Altitude Azimuth Distance (km) Brightness Sun altitude
Rises 05:34:06 0° 10° (N) 3,061 5.6 -13.0°
Reaches altitude 10° 05:36:22 10° 7° (N) 2,141 4.7 -12.6°
Maximum altitude 05:40:59 61° 288° (WNW) 778 2.3 -11.9°
Drops below altitude 10° 05:45:33 10° 209° (SSW) 2,125 4.7 -11.2°
Sets 05:47:48 0° 206° (SSW) 3,037 5.5 -10.8°
